Home   Weather   Sidon   Past weeks

Flag for Lebanon Past Weather in Sidon, Lebanon — Yesterday and Last 2 Weeks

Now
55 °F

Passing clouds.


Feels Like: 54 °F
Forecast: 53 / 72 °F
Wind: 7 mph from East

Location: Beirut Airport

Current Time: Feb 24, 2017 at 5:41:36 am

Latest Report: Feb 24, 2017 at 5:00 am


Visibility: 5 mi

Pressure: 30.27 "Hg

Humidity: 59%

Dew Point: 41 °F

Location of SidonLocation

Past Weather in Sidon — Graph

°F

Sidon Temperature Yesterday

Maximum temperature yesterday: 64 °F (at 11:00 am)
Minimum temperature yesterday: 54 °F (at 5:00 am)
Average temperature yesterday: 59 °F

High & Low Weather Summary for the Past Weeks

 TemperatureHumidityPressure
High64 °F (Feb 9, 11:00 am)88% (Feb 13, 10:00 am)30.45 "Hg (Feb 13, 10:00 am)
Low46 °F (Feb 15, 4:00 am)26% (Feb 16, 7:00 pm)29.95 "Hg (Feb 11, 2:00 pm)
Average55 °F58%30.15 "Hg
* Reported Feb 9 4:00 am — Feb 24 4:00 am, Sidon, Weather by CustomWeather, © 2017

Note: Actual official high and low records may vary slightly from our data, if they occured in-between our weather recording intervals... More about our weather records

Advertising

Sidon Weather History for the Previous 24 Hours

Scroll right to see more
 ConditionsComfort  
Time TempWeatherWind HumidityBarometerVisibility
4:00 am
Fri, Feb 24
55 °FPassing clouds.6 mph67%30.27 "Hg5 mi
3:00 am55 °FPassing clouds.6 mph67%30.27 "Hg5 mi
2:00 am55 °FPassing clouds.5 mph72%30.27 "Hg5 mi
1:00 am57 °FPassing clouds.5 mph72%30.27 "Hg5 mi
12:00 am57 °FPassing clouds.5 mph72%30.27 "HgN/A
11:00 pm
Thu, Feb 23
57 °FPassing clouds.3 mph72%30.27 "HgN/A
10:00 pm59 °FPassing clouds.5 mph72%30.27 "HgN/A
9:00 pm59 °FPassing clouds.2 mph72%30.27 "HgN/A
8:00 pm59 °FPassing clouds.3 mph72%30.27 "HgN/A
7:00 pm61 °FPassing clouds.No wind68%30.24 "HgN/A
6:00 pm61 °FPassing clouds.2 mph68%30.24 "HgN/A
5:00 pm63 °FPassing clouds.3 mph64%30.21 "HgN/A
4:00 pm63 °FPassing clouds.7 mph64%30.21 "HgN/A
3:00 pm64 °FSunny.8 mph64%30.21 "Hg10 mi
2:00 pm64 °FPassing clouds.9 mph60%30.21 "HgN/A
1:00 pm64 °FSunny.10 mph64%30.21 "Hg10 mi
12:00 pm64 °FSunny.12 mph60%30.21 "Hg10 mi
11:00 am64 °FPassing clouds.7 mph56%30.21 "HgN/A
10:00 am63 °FSunny.7 mph52%30.21 "Hg10 mi
9:00 am61 °FSunny.5 mph45%30.21 "Hg10 mi
8:00 am57 °FSunny.5 mph51%30.18 "HgN/A
7:00 am54 °FSunny.5 mph54%30.15 "Hg10 mi
6:00 am54 °FClear.6 mph58%30.15 "Hg10 mi
5:00 am54 °FClear.5 mph58%30.12 "Hg10 mi
Weather by CustomWeather, © 2017

See weather overviewHow to use our weather pages